Location: Kailua
(21.4020°N, 157.7390°W)
Time: 17:55:02
(UTC-10:00)

Cosmos 2297 Rocket - Visible Passes

Search period start: 19 September 2014 00:00
Search period end: 29 September 2014 00:00
Orbit: 840 x 843 km, 71.0° (Epoch: 18 September)

Date Brightness Start Highest point End Pass type
(mag) Time Alt. Az. Time Alt. Az. Time Alt. Az.
25 Sep 4.7 20:51:28 10° N 20:51:28 10° N 20:51:28 10° N visible
26 Sep 4.4 20:36:30 10° N 20:37:12 13° N 20:37:12 13° N visible
27 Sep 4.1 20:21:33 10° N 20:23:01 17° N 20:23:01 17° N visible
28 Sep 3.7 20:06:37 10° N 20:08:57 22° NNE 20:08:57 22° NNE visible
